Overview Statistics Trail Chart Weather Telemetry Raw packets
 

This is the latest recevied weather packets stored in our database for station/object KC3UTO. If no packets are shown the sender has not sent any weather packets the latest 10 day(s).

<< 13 14 15 16 17 18 19 >>
Time Temp. Humidity Pressure Rain* Wind** Luminosity Snow
1788469977 30° C 63% 1011.8 hPa 0 mm - 88 W/m² -
1788469673 30° C 63% 1011.9 hPa 0 mm - 59 W/m² -
1788469368 30° C 63% 1012 hPa 0 mm - 61 W/m² -
1788469068 30° C 63% 1012 hPa 0 mm - 60 W/m² -
1788468767 30° C 61% 1012 hPa 0 mm - 70 W/m² -
1788468463 30° C 63% 1012.1 hPa 0 mm - 208 W/m² -
1788468159 30° C 63% 1012.1 hPa 0 mm - 100 W/m² -
1788467854 30° C 62% 1012 hPa 0 mm - 99 W/m² -
1788467550 30° C 63% 1012.2 hPa 0 mm - 105 W/m² -
1788467243 29.44° C 64% 1012.2 hPa 0 mm - 92 W/m² -
1788466940 30° C 63% 1012.3 hPa 0 mm - 101 W/m² -
1788466639 29.44° C 63% 1012.3 hPa 0 mm - 104 W/m² -
1788466335 29.44° C 62% 1012.3 hPa 0 mm - 97 W/m² -
1788466034 29.44° C 63% 1012.3 hPa 0 mm - 99 W/m² -
1788465729 29.44° C 63% 1012.2 hPa 0 mm - 112 W/m² -
1788465425 29.44° C 62% 1012.6 hPa 0 mm - 121 W/m² -
1788465120 29.44° C 61% 1012.4 hPa 0 mm - 122 W/m² -
1788464820 30° C 59% 1012.4 hPa 0 mm - 132 W/m² -
1788464515 30° C 61% 1012.3 hPa 0 mm - 120 W/m² -
1788464211 30° C 61% 1012.4 hPa 0 mm - 109 W/m² -
1788463912 30° C 58% 1012.4 hPa 0 mm - 123 W/m² -
1788463608 30° C 59% 1012.4 hPa 0 mm - 93 W/m² -
1788463308 30° C 60% 1012.7 hPa 0 mm - 82 W/m² -
1788463005 30° C 59% 1012.7 hPa 0 mm - 88 W/m² -
1788462704 30.56° C 58% 1012.6 hPa 0 mm - 71 W/m² -

* Rain latest hour (hover to see other rain measurements)
** Current wind speed in m/s (hover to see current wind gust speed)